Flag for Netherlands Weather past 2 weeks in Wageningen, Netherlands

Now
59 °F

Cool.


Feels Like: 59 °F
Forecast: 54 / 67 °F
Wind: 2 mph from Southwest

Location: Deelen

Current Time: Sep 30, 2014 at 7:53:02 PM

Latest Report: Sep 30, 2014 at 7:25 PM


Visibility: N/A

Pressure: 30.24 "Hg

Humidity: 94%

Dew point: 57 °F

Location of WageningenLocation

Historic Weather in Wageningen — Graph

°F

Wageningen temperature yesterday

Maximum temperature yesterday: 68 °F (at 1:55 PM)
Minimum temperature yesterday: 57 °F (at 1:25 AM)
Average temperature yesterday: 61 °F

Past Weeks' High & Low Weather Summary

 TemperatureHumidityPressure
High77 °F (Sep 17, 2:55 PM)100% (Sep 16, 3:25 AM)30.36 "Hg (Sep 16, 3:25 AM)
Low41 °F (Sep 23, 7:55 AM)52% (Sep 21, 1:55 PM)29.80 "Hg (Sep 24, 3:25 PM)
Average60 °F86%30.05 "Hg
* Reported Sep 15 6:25 PM — Sep 30 6:55 PM, Wageningen, Weather by CustomWeather, © 2014

Note: Actual official high and low records may vary slightly from our data, if they occured in-between our weather recording intervals... More about our weather records

Advertising

Wageningen weather history for previous 24 hours

 ConditionsComfort  
Time TempWeatherWind HumidityBarometerVisibility
6:55 PM
Sep 30
63 °FMild.2 mph83%30.24 "HgN/A
6:25 PM64 °FPartly sunny.5 mph78%30.24 "HgN/A
5:55 PM64 °FPartly sunny.9 mph78%30.24 "HgN/A
5:25 PM66 °FPassing clouds.10 mph73%30.24 "HgN/A
4:55 PM66 °FBroken clouds.9 mph78%30.24 "HgN/A
4:25 PM66 °FPartly sunny.12 mph78%30.24 "HgN/A
3:55 PM66 °FBroken clouds.10 mph78%30.24 "HgN/A
3:25 PM66 °FPartly sunny.10 mph78%30.24 "HgN/A
2:55 PM66 °FCloudy.8 mph78%30.24 "HgN/A
2:25 PM66 °FMore clouds than sun.8 mph78%30.24 "HgN/A
1:55 PM66 °FFog.8 mph78%30.24 "Hg5 mi
1:25 PM64 °FFog.8 mph88%30.24 "Hg4 mi
12:55 PM63 °FFog.7 mph88%30.24 "Hg3 mi
12:25 PM63 °FFog.8 mph88%30.24 "Hg4 mi
11:55 AM63 °FFog.8 mph88%30.24 "Hg4 mi
11:25 AM63 °FFog.9 mph88%30.24 "Hg3 mi
10:55 AM63 °FFog.10 mph88%30.24 "Hg3 mi
10:25 AM61 °FFog.9 mph94%30.21 "Hg2 mi
9:55 AM61 °FFog.7 mph100%30.21 "Hg1 mi
9:25 AM61 °FFog.7 mph94%30.21 "Hg1 mi
8:55 AM61 °FFog.6 mph94%30.21 "Hg1 mi
8:25 AM61 °FFog.7 mph94%30.21 "Hg1 mi
7:55 AM61 °FFog.7 mph94%30.18 "Hg1 mi
7:25 AM61 °FFog.6 mph94%30.18 "Hg1 mi
6:55 AM61 °FFog.7 mph100%30.18 "Hg1 mi
6:25 AM61 °FFog.6 mph100%30.18 "Hg1 mi
5:55 AM61 °FFog.8 mph100%30.18 "Hg1 mi
5:25 AM61 °FFog.6 mph100%30.18 "Hg1 mi
4:55 AM61 °FFog.7 mph100%30.18 "Hg2 mi
4:25 AM61 °FFog.7 mph100%30.18 "Hg1 mi
3:55 AM61 °FFog.6 mph100%30.18 "Hg2 mi
3:25 AM61 °FDrizzle. Overcast.6 mph100%30.18 "Hg2 mi
2:55 AM61 °FFog.6 mph100%30.18 "Hg2 mi
2:25 AM61 °FPassing clouds.7 mph100%30.18 "Hg2 mi
1:55 AM61 °FFog.5 mph100%30.18 "Hg2 mi
1:25 AM61 °FFog.3 mph100%30.18 "Hg2 mi
12:55 AM61 °FFog.5 mph100%30.18 "Hg2 mi
12:25 AM61 °FFog.5 mph100%30.18 "Hg2 mi
11:55 PM
Sep 29
61 °FFog.5 mph100%30.18 "Hg1 mi
11:25 PM61 °FFog.5 mph100%30.18 "Hg1 mi
10:55 PM61 °FDrizzle. Overcast.5 mph100%30.18 "Hg1 mi
10:25 PM61 °FPartly cloudy.3 mph100%30.18 "Hg1 mi
9:55 PM61 °FDrizzle. Mostly cloudy.5 mph100%30.18 "Hg1 mi
9:25 PM61 °FFog.3 mph100%30.18 "Hg1 mi
8:55 PM61 °FFog.5 mph100%30.18 "Hg1 mi
8:25 PM61 °FFog.5 mph100%30.18 "Hg1 mi
7:55 PM61 °FFog.5 mph100%30.18 "Hg1 mi
7:25 PM61 °FDrizzle. More clouds than sun.3 mph100%30.18 "Hg2 mi
Weather by CustomWeather, © 2014

See weather overviewHow to use our weather pages